Time,TemperatureF,DewpointF,PressureIn,WindDirection,WindDirectionDegrees,WindSpeedMPH,WindSpeedGustMPH,Humidity,HourlyPrecipIn,Conditions,Clouds,dailyrainin,SoftwareType,DateUTC
2013-03-17 00:02:00,20.0,19.0,-100.00,SSE,165,7.0,12.0,94,0.00,,,-99.99,,2013-03-17 06:02:00,
2013-03-17 00:12:00,20.0,19.0,-100.00,South,185,2.0,11.0,93,0.00,,,-99.99,,2013-03-17 06:12:00,
2013-03-17 00:22:00,20.0,19.0,-100.00,South,170,6.0,7.0,93,0.00,,,-99.99,,2013-03-17 06:22:00,
2013-03-17 00:32:00,20.0,18.0,-100.00,SSE,155,3.0,6.0,93,0.00,,,-99.99,,2013-03-17 06:32:00,
2013-03-17 00:42:00,19.0,18.0,-100.00,NE,45,2.0,4.0,93,0.00,,,-99.99,,2013-03-17 06:42:00,
2013-03-17 00:52:00,18.0,17.0,-100.00,SSE,165,4.0,5.0,92,0.00,,,-99.99,,2013-03-17 06:52:00,
2013-03-17 01:02:00,18.0,16.0,-100.00,SSE,165,5.0,6.0,92,0.00,,,-99.99,,2013-03-17 07:02:00,
2013-03-17 01:12:00,17.0,15.0,-100.00,South,170,4.0,7.0,92,0.00,,,-99.99,,2013-03-17 07:12:00,
2013-03-17 01:22:00,18.0,16.0,-100.00,SSE,165,5.0,6.0,92,0.00,,,-99.99,,2013-03-17 07:22:00,
2013-03-17 01:32:00,18.0,16.0,-100.00,South,170,6.0,7.0,92,0.00,,,-99.99,,2013-03-17 07:32:00,
2013-03-17 01:42:00,17.0,16.0,-100.00,SSE,165,5.0,7.0,92,0.00,,,-99.99,,2013-03-17 07:42:00,
2013-03-17 01:52:00,19.0,17.0,-100.00,SSE,160,4.0,7.0,92,0.00,,,-99.99,,2013-03-17 07:52:00,
2013-03-17 02:02:00,20.0,18.0,-100.00,North,0,1.0,5.0,92,0.00,,,-99.99,,2013-03-17 08:02:00,
2013-03-17 02:13:00,19.0,18.0,-100.00,NNE,20,1.0,7.0,92,0.00,,,-99.99,,2013-03-17 08:13:00,
2013-03-17 02:22:00,19.0,18.0,-100.00,NE,35,2.0,6.0,92,0.00,,,-99.99,,2013-03-17 08:22:00,
2013-03-17 02:32:00,19.0,17.0,-100.00,North,0,2.0,5.0,92,0.00,,,-99.99,,2013-03-17 08:32:00,
2013-03-17 02:42:00,20.0,18.0,-100.00,NNE,30,4.0,6.0,92,0.00,,,-99.99,,2013-03-17 08:42:00,
2013-03-17 02:52:00,20.0,18.0,-100.00,ENE,60,2.0,5.0,92,0.00,,,-99.99,,2013-03-17 08:52:00,
2013-03-17 03:02:00,20.0,18.0,-100.00,NNE,25,2.0,6.0,92,0.00,,,-99.99,,2013-03-17 09:02:00,
2013-03-17 03:12:00,19.0,17.0,-100.00,SSE,160,2.0,5.0,92,0.00,,,-99.99,,2013-03-17 09:12:00,
2013-03-17 03:22:00,19.0,17.0,-100.00,South,190,2.0,4.0,92,0.00,,,-99.99,,2013-03-17 09:22:00,
2013-03-17 03:32:00,18.0,17.0,-100.00,South,185,1.0,4.0,92,0.00,,,-99.99,,2013-03-17 09:32:00,
2013-03-17 03:43:00,19.0,17.0,-100.00,NNE,30,0.0,3.0,92,0.00,,,-99.99,,2013-03-17 09:43:00,
2013-03-17 03:53:00,18.0,17.0,-100.00,NNE,25,2.0,4.0,92,0.00,,,-99.99,,2013-03-17 09:53:00,
2013-03-17 04:03:00,18.0,16.0,-100.00,SSW,195,2.0,4.0,92,0.00,,,-99.99,,2013-03-17 10:03:00,
2013-03-17 04:13:00,18.0,16.0,-100.00,SE,140,2.0,4.0,92,0.00,,,-99.99,,2013-03-17 10:13:00,
2013-03-17 04:23:00,19.0,17.0,-100.00,South,180,3.0,5.0,92,0.00,,,-99.99,,2013-03-17 10:23:00,
2013-03-17 04:33:00,19.0,17.0,-100.00,SSE,150,3.0,6.0,92,0.00,,,-99.99,,2013-03-17 10:33:00,
2013-03-17 04:42:00,18.0,16.0,-100.00,SSE,150,2.0,4.0,92,0.00,,,-99.99,,2013-03-17 10:42:00,
2013-03-17 04:52:00,19.0,17.0,-100.00,SSE,150,2.0,5.0,92,0.00,,,-99.99,,2013-03-17 10:52:00,
2013-03-17 05:02:00,18.0,16.0,-100.00,South,185,3.0,4.0,92,0.00,,,-99.99,,2013-03-17 11:02:00,
2013-03-17 05:12:00,19.0,17.0,-100.00,South,190,3.0,4.0,92,0.00,,,-99.99,,2013-03-17 11:12:00,
2013-03-17 05:22:00,19.0,17.0,-100.00,South,190,4.0,6.0,92,0.00,,,-99.99,,2013-03-17 11:22:00,
2013-03-17 05:32:00,19.0,18.0,-100.00,SSW,200,4.0,6.0,92,0.00,,,-99.99,,2013-03-17 11:32:00,
2013-03-17 05:42:00,20.0,18.0,-100.00,SSE,165,4.0,7.0,92,0.00,,,-99.99,,2013-03-17 11:42:00,
2013-03-17 05:52:00,20.0,18.0,-100.00,SSE,155,4.0,7.0,92,0.00,,,-99.99,,2013-03-17 11:52:00,
2013-03-17 06:02:00,19.0,18.0,-100.00,South,185,6.0,9.0,92,0.00,,,-99.99,,2013-03-17 12:02:00,
2013-03-17 06:12:00,19.0,18.0,-100.00,SSE,155,7.0,10.0,92,0.00,,,-99.99,,2013-03-17 12:12:00,
2013-03-17 06:22:00,19.0,17.0,-100.00,SSE,155,8.0,11.0,92,0.00,,,-99.99,,2013-03-17 12:22:00,
2013-03-17 06:32:00,19.0,18.0,-100.00,SSE,155,9.0,12.0,92,0.00,,,-99.99,,2013-03-17 12:32:00,
2013-03-17 06:43:00,19.0,18.0,-100.00,SSE,165,7.0,12.0,92,0.00,,,-99.99,,2013-03-17 12:43:00,
2013-03-17 06:52:00,19.0,17.0,-100.00,South,170,9.0,10.0,92,0.00,,,-99.99,,2013-03-17 12:52:00,
2013-03-17 07:02:00,18.0,17.0,-100.00,SSE,155,7.0,11.0,92,0.00,,,-99.99,,2013-03-17 13:02:00,
2013-03-17 07:12:00,19.0,17.0,-100.00,SSE,150,7.0,12.0,92,0.00,,,-99.99,,2013-03-17 13:12:00,
2013-03-17 07:22:00,19.0,17.0,-100.00,SE,145,9.0,11.0,92,0.00,,,-99.99,,2013-03-17 13:22:00,
2013-03-17 07:32:00,19.0,17.0,-100.00,SSE,155,9.0,11.0,92,0.00,,,-99.99,,2013-03-17 13:32:00,
2013-03-17 07:42:00,19.0,17.0,-100.00,SSE,165,10.0,25.0,91,0.00,,,-99.99,,2013-03-17 13:42:00,
2013-03-17 07:52:00,19.0,17.0,-100.00,SSE,165,9.0,15.0,92,0.00,,,-99.99,,2013-03-17 13:52:00,
2013-03-17 08:02:00,19.0,17.0,-100.00,SE,145,11.0,16.0,92,0.30,,,-99.99,,2013-03-17 14:02:00,
2013-03-17 08:12:00,19.0,17.0,-100.00,South,185,11.0,19.0,92,0.30,,,-99.99,,2013-03-17 14:12:00,
2013-03-17 08:22:00,19.0,17.0,-100.00,South,185,11.0,15.0,92,0.20,,,-99.99,,2013-03-17 14:22:00,
2013-03-17 08:32:00,19.0,17.0,-100.00,South,170,10.0,17.0,92,1.00,,,-99.99,,2013-03-17 14:32:00,
2013-03-17 08:42:00,19.0,17.0,-100.00,SSE,155,10.0,14.0,92,0.30,,,-99.99,,2013-03-17 14:42:00,
2013-03-17 08:52:00,19.0,17.0,-100.00,South,175,10.0,16.0,92,1.40,,,-99.99,,2013-03-17 14:52:00,
2013-03-17 09:02:00,19.0,17.0,-100.00,South,170,12.0,18.0,92,1.90,,,-99.99,,2013-03-17 15:02:00,
2013-03-17 09:12:00,19.0,17.0,-100.00,South,175,11.0,16.0,92,0.90,,,-99.99,,2013-03-17 15:12:00,
2013-03-17 09:23:00,19.0,17.0,-100.00,SSE,165,14.0,18.0,92,0.30,,,-99.99,,2013-03-17 15:23:00,
2013-03-17 09:33:00,19.0,18.0,-100.00,South,175,9.0,22.0,92,0.50,,,-99.99,,2013-03-17 15:33:00,
2013-03-17 09:42:00,20.0,18.0,-100.00,South,175,11.0,17.0,92,1.30,,,-99.99,,2013-03-17 15:42:00,
2013-03-17 09:52:00,20.0,18.0,-100.00,SSW,195,9.0,14.0,92,3.40,,,-99.99,,2013-03-17 15:52:00,
2013-03-17 10:03:00,20.0,18.0,-100.00,South,175,7.0,17.0,92,0.50,,,-99.99,,2013-03-17 16:03:00,
2013-03-17 10:12:00,20.0,18.0,-100.00,South,185,11.0,22.0,92,0.10,,,-99.99,,2013-03-17 16:12:00,
2013-03-17 10:22:00,20.0,18.0,-100.00,SSE,160,11.0,19.0,92,0.10,,,-99.99,,2013-03-17 16:22:00,
2013-03-17 10:33:00,20.0,18.0,-100.00,SE,130,7.0,16.0,92,0.10,,,-99.99,,2013-03-17 16:33:00,
2013-03-17 10:42:00,20.0,19.0,-100.00,North,10,3.0,21.0,92,0.00,,,-99.99,,2013-03-17 16:42:00,
2013-03-17 10:52:00,20.0,19.0,-100.00,South,190,7.0,16.0,92,0.00,,,-99.99,,2013-03-17 16:52:00,
2013-03-17 11:02:00,20.0,18.0,-100.00,SSE,155,6.0,18.0,92,0.00,,,-99.99,,2013-03-17 17:02:00,
2013-03-17 11:12:00,20.0,19.0,-100.00,East,100,5.0,16.0,92,0.10,,,-99.99,,2013-03-17 17:12:00,
2013-03-17 11:22:00,20.0,19.0,-100.00,NW,325,6.0,12.0,92,1.60,,,-99.99,,2013-03-17 17:22:00,
2013-03-17 11:33:00,20.0,19.0,-100.00,NE,40,5.0,14.0,92,0.30,,,-99.99,,2013-03-17 17:33:00,
2013-03-17 11:42:00,20.0,19.0,-100.00,ENE,65,6.0,14.0,92,0.00,,,-99.99,,2013-03-17 17:42:00,
2013-03-17 11:52:00,20.0,18.0,-100.00,NE,40,7.0,16.0,92,0.10,,,-99.99,,2013-03-17 17:52:00,
2013-03-17 12:02:00,20.0,18.0,-100.00,NE,35,7.0,17.0,92,0.10,,,-99.99,,2013-03-17 18:02:00,
2013-03-17 12:12:00,20.0,19.0,-100.00,NE,40,7.0,20.0,92,0.90,,,-99.99,,2013-03-17 18:12:00,
2013-03-17 12:22:00,20.0,19.0,-100.00,North,0,7.0,21.0,93,0.70,,,-99.99,,2013-03-17 18:22:00,
2013-03-17 12:32:00,21.0,19.0,-100.00,NNE,25,6.0,15.0,93,0.00,,,-99.99,,2013-03-17 18:32:00,
2013-03-17 12:42:00,22.0,20.0,-100.00,North,0,2.0,19.0,93,0.00,,,-99.99,,2013-03-17 18:42:00,
2013-03-17 12:52:00,22.0,21.0,-100.00,NNW,330,6.0,23.0,93,0.10,,,-99.99,,2013-03-17 18:52:00,
2013-03-17 13:02:00,22.0,21.0,-100.00,NE,40,6.0,23.0,93,0.00,,,-99.99,,2013-03-17 19:02:00,
2013-03-17 13:12:00,23.0,21.0,-100.00,NNE,30,4.0,12.0,93,0.00,,,-99.99,,2013-03-17 19:12:00,
2013-03-17 13:22:00,22.0,21.0,-100.00,NE,45,6.0,14.0,93,0.00,,,-99.99,,2013-03-17 19:22:00,
2013-03-17 13:33:00,22.0,21.0,-100.00,North,0,10.0,19.0,93,0.00,,,-99.99,,2013-03-17 19:33:00,
2013-03-17 13:42:00,22.0,21.0,-100.00,NNE,30,6.0,20.0,93,0.00,,,-99.99,,2013-03-17 19:42:00,
2013-03-17 13:53:00,24.0,22.0,-100.00,North,0,6.0,19.0,94,0.00,,,-99.99,,2013-03-17 19:53:00,
2013-03-17 14:02:00,22.0,21.0,-100.00,North,0,7.0,19.0,93,0.00,,,-99.99,,2013-03-17 20:02:00,
2013-03-17 14:12:00,22.0,21.0,-100.00,SE,130,4.0,15.0,93,1.30,,,-99.99,,2013-03-17 20:12:00,
2013-03-17 14:22:00,22.0,21.0,-100.00,ENE,75,6.0,15.0,93,0.10,,,-99.99,,2013-03-17 20:22:00,
2013-03-17 14:32:00,22.0,21.0,-100.00,NNE,30,7.0,14.0,93,0.00,,,-99.99,,2013-03-17 20:32:00,
2013-03-17 14:42:00,22.0,20.0,-100.00,South,190,6.0,13.0,93,0.00,,,-99.99,,2013-03-17 20:42:00,
2013-03-17 14:52:00,21.0,20.0,-100.00,East,100,8.0,19.0,93,0.00,,,-99.99,,2013-03-17 20:52:00,
2013-03-17 15:02:00,21.0,20.0,-100.00,North,10,4.0,34.0,93,0.10,,,-99.99,,2013-03-17 21:02:00,
2013-03-17 15:12:00,22.0,20.0,-100.00,SE,145,6.0,14.0,93,0.30,,,-99.99,,2013-03-17 21:12:00,
2013-03-17 15:22:00,22.0,20.0,-100.00,SE,140,12.0,17.0,93,0.00,,,-99.99,,2013-03-17 21:22:00,
2013-03-17 15:33:00,22.0,21.0,-100.00,SE,130,9.0,16.0,93,0.00,,,-99.99,,2013-03-17 21:33:00,
2013-03-17 15:43:00,22.0,21.0,-100.00,SE,135,10.0,23.0,93,0.00,,,-99.99,,2013-03-17 21:43:00,
2013-03-17 15:52:00,21.0,20.0,-100.00,SSE,165,21.0,32.0,93,0.00,,,-99.99,,2013-03-17 21:52:00,
2013-03-17 16:03:00,22.0,20.0,-100.00,SSE,165,11.0,32.0,93,0.00,,,-99.99,,2013-03-17 22:03:00,
2013-03-17 16:12:00,22.0,21.0,-100.00,ESE,115,7.0,15.0,93,0.00,,,-99.99,,2013-03-17 22:12:00,
2013-03-17 16:23:00,22.0,21.0,-100.00,North,0,7.0,23.0,92,0.00,,,-99.99,,2013-03-17 22:23:00,
2013-03-17 16:33:00,22.0,20.0,-100.00,North,5,7.0,20.0,88,0.00,,,-99.99,,2013-03-17 22:33:00,
2013-03-17 16:42:00,21.0,17.0,-100.00,NNE,15,9.0,22.0,81,0.00,,,-99.99,,2013-03-17 22:42:00,
2013-03-17 16:52:00,21.0,15.0,-100.00,North,0,7.0,19.0,75,0.00,,,-99.99,,2013-03-17 22:52:00,
2013-03-17 17:02:00,21.0,15.0,-100.00,NNW,340,7.0,19.0,77,0.00,,,-99.99,,2013-03-17 23:02:00,
2013-03-17 17:12:00,21.0,14.0,-100.00,NE,50,11.0,24.0,75,0.10,,,-99.99,,2013-03-17 23:12:00,
2013-03-17 17:22:00,21.0,14.0,-100.00,NNE,15,7.0,31.0,74,0.00,,,-99.99,,2013-03-17 23:22:00,
2013-03-17 17:33:00,20.0,13.0,-100.00,NNE,25,11.0,26.0,73,0.00,,,-99.99,,2013-03-17 23:33:00,
2013-03-17 17:42:00,20.0,13.0,-100.00,NNE,30,11.0,27.0,73,0.00,,,-99.99,,2013-03-17 23:42:00,
2013-03-17 17:52:00,20.0,13.0,-100.00,NE,40,9.0,23.0,74,0.00,,,-99.99,,2013-03-17 23:52:00,
2013-03-17 18:03:00,20.0,13.0,-100.00,NE,55,9.0,24.0,74,0.00,,,-99.99,,2013-03-18 00:03:00,
2013-03-17 18:12:00,20.0,13.0,-100.00,North,0,7.0,22.0,73,0.00,,,-99.99,,2013-03-18 00:12:00,
2013-03-17 18:22:00,20.0,13.0,-100.00,NNE,25,10.0,17.0,72,0.00,,,-99.99,,2013-03-18 00:22:00,
2013-03-17 18:33:00,20.0,12.0,-100.00,NE,40,10.0,21.0,70,0.00,,,-99.99,,2013-03-18 00:33:00,
2013-03-17 18:42:00,20.0,11.0,-100.00,NE,50,8.0,15.0,69,0.00,,,-99.99,,2013-03-18 00:42:00,
2013-03-17 18:52:00,20.0,11.0,-100.00,North,0,11.0,26.0,68,0.00,,,-99.99,,2013-03-18 00:52:00,
2013-03-17 19:02:00,19.0,11.0,-100.00,NE,55,11.0,32.0,68,0.00,,,-99.99,,2013-03-18 01:02:00,
2013-03-17 19:12:00,19.0,11.0,-100.00,North,5,9.0,26.0,69,0.00,,,-99.99,,2013-03-18 01:12:00,
2013-03-17 19:22:00,19.0,11.0,-100.00,North,0,12.0,27.0,72,0.00,,,-99.99,,2013-03-18 01:22:00,
2013-03-17 19:32:00,19.0,11.0,-100.00,NE,55,9.0,24.0,72,0.00,,,-99.99,,2013-03-18 01:32:00,
2013-03-17 19:42:00,19.0,12.0,-100.00,North,0,13.0,24.0,74,0.00,,,-99.99,,2013-03-18 01:42:00,
2013-03-17 19:52:00,19.0,11.0,-100.00,North,10,16.0,29.0,73,0.00,,,-99.99,,2013-03-18 01:52:00,
2013-03-17 20:02:00,18.0,11.0,-100.00,North,350,12.0,24.0,72,0.00,,,-99.99,,2013-03-18 02:02:00,
2013-03-17 20:12:00,19.0,11.0,-100.00,NE,40,13.0,20.0,70,0.00,,,-99.99,,2013-03-18 02:12:00,
2013-03-17 20:22:00,18.0,11.0,-100.00,NNE,30,9.0,21.0,74,0.00,,,-99.99,,2013-03-18 02:22:00,
2013-03-17 20:32:00,18.0,12.0,-100.00,NNE,15,8.0,21.0,77,0.00,,,-99.99,,2013-03-18 02:32:00,
2013-03-17 20:42:00,17.0,13.0,-100.00,North,0,4.0,18.0,81,0.00,,,-99.99,,2013-03-18 02:42:00,
2013-03-17 20:52:00,17.0,13.0,-100.00,North,0,7.0,18.0,81,0.00,,,-99.99,,2013-03-18 02:52:00,
2013-03-17 21:02:00,17.0,13.0,-100.00,NNE,25,9.0,14.0,81,0.00,,,-99.99,,2013-03-18 03:02:00,
2013-03-17 21:11:00,17.0,12.0,-100.00,North,0,12.0,25.0,78,0.00,,,-99.99,,2013-03-18 03:11:00,
2013-03-17 21:22:00,17.0,11.0,-100.00,North,10,10.0,24.0,77,0.00,,,-99.99,,2013-03-18 03:22:00,
2013-03-17 21:33:00,17.0,11.0,-100.00,NNE,30,12.0,24.0,78,0.00,,,-99.99,,2013-03-18 03:33:00,
2013-03-17 21:42:00,17.0,11.0,-100.00,NE,45,13.0,21.0,77,0.00,,,-99.99,,2013-03-18 03:42:00,
2013-03-17 21:52:00,16.0,10.0,-100.00,NE,35,7.0,20.0,77,0.00,,,-99.99,,2013-03-18 03:52:00,
2013-03-17 22:03:00,16.0,10.0,-100.00,NNE,25,9.0,17.0,76,0.00,,,-99.99,,2013-03-18 04:03:00,
2013-03-17 22:13:00,16.0,9.0,-100.00,NNW,345,10.0,21.0,73,0.00,,,-99.99,,2013-03-18 04:13:00,
2013-03-17 22:22:00,16.0,9.0,-100.00,NNE,15,14.0,26.0,72,0.00,,,-99.99,,2013-03-18 04:22:00,
2013-03-17 22:33:00,16.0,8.0,-100.00,North,355,15.0,26.0,69,0.00,,,-99.99,,2013-03-18 04:33:00,
2013-03-17 22:42:00,16.0,7.0,-100.00,North,0,11.0,31.0,66,0.00,,,-99.99,,2013-03-18 04:42:00,
2013-03-17 22:52:00,16.0,7.0,-100.00,North,5,9.0,21.0,64,0.00,,,-99.99,,2013-03-18 04:52:00,
2013-03-17 23:02:00,17.0,6.0,-100.00,NNE,15,6.0,19.0,62,0.00,,,-99.99,,2013-03-18 05:02:00,
2013-03-17 23:12:00,17.0,5.0,-100.00,North,0,7.0,15.0,60,0.00,,,-99.99,,2013-03-18 05:12:00,
2013-03-17 23:22:00,17.0,5.0,-100.00,NE,35,7.0,22.0,59,0.00,,,-99.99,,2013-03-18 05:22:00,
2013-03-17 23:32:00,16.0,5.0,-100.00,NNE,15,5.0,17.0,60,0.00,,,-99.99,,2013-03-18 05:32:00,
2013-03-17 23:43:00,16.0,5.0,-100.00,NE,45,4.0,14.0,60,0.00,,,-99.99,,2013-03-18 05:43:00,
2013-03-17 23:52:00,16.0,4.0,-100.00,NNE,15,9.0,16.0,58,0.00,,,-99.99,,2013-03-18 05:52:00,